DW4130 Weather Reports


time (UTC)temp
F
wind
direction
speed
knots
gust
knots
rain 1hr
in
rain 24hr
in
rain mn
in
humidity
%
barometer
mb
20260503213003 88 61 0.9 2.6 0.00 0.00 0.00 34 1000.9
20260503212502 88 17 0.0 1.7 0.00 0.00 0.00 36 1001.0
20260503212003 89 102 0.0 4.3 0.00 0.00 0.00 36 1001.0
20260503211503 88 285 1.7 5.2 0.00 0.00 0.00 38 1001.1
20260503211003 88 291 0.0 1.7 0.00 0.00 0.00 38 1001.1
20260503210503 88 292 0.9 2.6 0.00 0.00 0.00 40 1001.2
20260503210005 88 298 0.0 2.6 0.00 0.00 0.00 40 1001.3
20260503205503 87 317 0.9 4.3 0.00 0.00 0.00 40 1001.3
20260503205003 87 286 0.9 1.7 0.00 0.00 0.00 42 1001.4
20260503204503 87 298 0.0 1.7 0.00 0.00 0.00 44 1001.5
20260503204004 86 345 0.9 1.7 0.00 0.00 0.00 41 1001.6
20260503203004 86 65 0.0 1.7 0.00 0.00 0.00 42 1001.7
20260503202503 85 329 0.0 1.7 0.00 0.00 0.00 45 1001.7
20260503202003 85 5 0.0 2.6 0.00 0.00 0.00 44 1001.9
20260503201503 85 278 0.0 1.7 0.00 0.00 0.00 43 1001.9
20260503201004 84 73 0.9 2.6 0.00 0.00 0.00 47 1002.0
20260503200504 84 277 0.0 4.3 0.00 0.00 0.00 44 1002.1
20260503200004 84 30 0.0 1.7 0.00 0.00 0.00 48 1002.1
20260503195503 83 281 0.0 2.6 0.00 0.00 0.00 50 1002.2
20260503194503 83 67 0.9 2.6 0.00 0.00 0.00 51 1002.3
20260503194004 83 96 0.0 1.7 0.00 0.00 0.00 53 1002.4
20260503193004 82 308 0.0 1.7 0.00 0.00 0.00 53 1002.5
20260503192503 81 5 0.0 1.7 0.00 0.00 0.00 52 1002.5
20260503192003 81 22 0.0 1.7 0.00 0.00 0.00 52 1002.6
20260503191504 80 276 0.0 2.6 0.00 0.00 0.00 52 1002.6
20260503191003 80 69 0.9 1.7 0.00 0.00 0.00 53 1002.7
20260503190503 80 293 0.0 2.6 0.00 0.00 0.00 55 1002.8
20260503190003 79 63 0.0 2.6 0.00 0.00 0.00 54 1002.9
20260503185505 79 64 0.9 2.6 0.00 0.00 0.00 58 1002.9
20260503185004 79 66 0.9 1.7 0.00 0.00 0.00 56 1003.0
20260503184503 79 57 0.0 1.7 0.00 0.00 0.00 61 1003.1
20260503184004 78 302 0.0 2.6 0.00 0.00 0.00 55 1003.1
20260503183504 77 142 0.0 1.7 0.00 0.00 0.00 58 1003.2
20260503183004 77 90 0.9 2.6 0.00 0.00 0.00 56 1003.3
20260503182504 77 288 0.0 2.6 0.00 0.00 0.00 59 1003.3
20260503182005 77 293 0.0 2.6 0.00 0.00 0.00 58 1003.4
20260503181505 77 326 0.9 1.7 0.00 0.00 0.00 58 1003.4
20260503181003 77 81 0.0 1.7 0.00 0.00 0.00 62 1003.4
20260503180503 76 80 0.0 0.0 0.00 0.00 0.00 59 1003.5
20260503180003 75 80 0.0 1.7 0.00 0.00 0.00 62 1003.6
20260503175502 73 80 0.9 1.7 0.00 0.00 0.00 61 1003.6
20260503174502 74 19 0.0 1.7 0.00 0.00 0.00 62 1003.7
20260503174002 74 16 0.0 0.9 0.00 0.00 0.00 60 1003.7
20260503173502 74 292 0.0 2.6 0.00 0.00 0.00 63 1003.8
20260503173003 73 294 0.0 1.7 0.00 0.00 0.00 64 1003.9
20260503172502 72 294 0.0 2.6 0.00 0.00 0.00 63 1003.9
20260503171002 71 36 0.0 1.7 0.00 0.00 0.00 69 1004.0
20260503151003 59 182 0.0 0.0 0.00 0.00 0.00 87 1004.5
20260503150504 59 182 0.0 0.0 0.00 0.00 0.00 88 1004.6
20260503131003 51 182 0.0 0.0 0.00 0.00 0.00 89 1004.3
20260503110503 54 182 0.0 0.0 0.00 0.00 0.00 88 1004.5
20260503090502 56 182 0.0 0.0 0.00 0.00 0.00 86 1004.7
20260503081003 57 182 0.0 0.0 0.00 0.01 0.00 84 1004.8
20260503080503 57 181 0.0 0.0 0.00 0.01 0.00 85 1004.8
20260503072502 59 182 0.0 0.0 0.00 0.01 0.00 83 1004.9
20260503072003 59 182 0.0 0.0 0.00 0.01 0.00 83 1004.9
20260503071502 59 182 0.0 0.0 0.00 0.01 0.00 82 1004.9
20260503071003 59 182 0.0 0.0 0.00 0.01 0.00 83 1004.8
20260503070503 60 182 0.0 0.0 0.00 0.01 0.00 82 1004.9
20260503055004 61 182 0.0 1.7 0.00 0.01 0.01 80 1004.3
20260503054503 61 180 0.0 0.0 0.00 0.01 0.01 80 1004.3
20260503054004 62 181 0.0 0.0 0.00 0.01 0.01 79 1004.5
20260503053503 62 181 0.0 0.0 0.00 0.01 0.01 79 1004.6
20260503053004 62 182 0.0 0.0 0.00 0.01 0.01 79 1004.7
20260503052505 62 182 0.0 0.0 0.00 0.01 0.01 79 1004.8
20260503052003 62 182 0.0 0.0 0.00 0.01 0.01 79 1004.8
20260503051503 63 182 0.0 0.0 0.00 0.01 0.01 79 1004.8
20260503051004 63 181 0.0 0.0 0.00 0.01 0.01 78 1004.9
20260503050003 63 180 0.0 0.0 0.00 0.01 0.01 77 1005.0
20260503044504 64 182 0.0 0.0 0.00 0.01 0.01 76 1005.0
20260503044004 64 182 0.0 0.0 0.00 0.01 0.01 75 1005.1
20260503043503 64 182 0.0 1.7 0.00 0.01 0.01 75 1005.1
20260503043002 64 182 0.0 0.0 0.00 0.01 0.01 74 1005.0
20260503042503 65 181 0.0 0.0 0.00 0.01 0.01 74 1005.0
20260503042002 65 182 0.0 0.0 0.00 0.01 0.01 73 1005.0
20260503041502 65 182 0.0 0.0 0.00 0.01 0.01 73 1005.0
20260503041002 65 182 0.0 0.0 0.00 0.01 0.01 72 1005.0
20260503040503 66 182 0.0 0.0 0.00 0.01 0.01 72 1005.0
20260503040003 66 182 0.0 0.0 0.00 0.01 0.01 71 1005.0
20260503035503 66 182 0.0 0.0 0.00 0.01 0.01 71 1005.0
20260503035003 66 181 0.0 0.0 0.00 0.01 0.01 70 1004.9
20260503034503 66 182 0.0 0.0 0.00 0.01 0.01 70 1005.0
20260503034003 67 182 0.0 0.0 0.00 0.01 0.01 69 1004.9
20260503033503 67 182 0.0 0.0 0.00 0.01 0.01 69 1004.9
20260503033003 67 182 0.0 1.7 0.00 0.01 0.01 68 1004.9
20260503032502 67 182 0.0 0.0 0.00 0.01 0.01 67 1004.8
20260503031504 68 181 0.0 0.0 0.00 0.01 0.01 67 1004.8
20260503030503 68 182 0.0 1.7 0.00 0.01 0.01 66 1004.7
20260503030003 68 179 0.0 1.7 0.00 0.01 0.01 67 1004.6
20260503025504 69 179 0.9 4.3 0.00 0.01 0.01 67 1004.6
20260503025003 69 174 0.0 2.6 0.00 0.01 0.01 67 1004.4
20260503024504 69 85 0.0 1.7 0.00 0.01 0.01 67 1004.4
20260503024003 69 82 0.0 1.7 0.00 0.01 0.01 67 1004.3
20260503023503 70 86 0.0 2.6 0.00 0.01 0.01 66 1004.1
20260503023003 70 65 0.9 1.7 0.00 0.01 0.01 66 1004.1
20260503022003 70 80 0.0 0.9 0.00 0.01 0.01 64 1004.0
20260503021503 70 77 0.9 2.6 0.00 0.01 0.01 64 1003.9
20260503021003 71 92 0.0 1.7 0.00 0.01 0.01 65 1003.7
20260503020504 71 92 0.0 1.7 0.00 0.01 0.01 64 1003.7
20260503020004 71 92 0.0 1.7 0.00 0.01 0.01 63 1003.6
20260503015504 71 91 0.0 1.7 0.00 0.01 0.01 63 1003.5
20260503014504 72 127 0.0 1.7 0.00 0.01 0.01 62 1003.3
20260503014004 72 154 0.0 1.7 0.00 0.01 0.01 62 1003.4
20260503013504 72 154 0.0 1.7 0.00 0.01 0.01 62 1003.4
20260503013004 72 150 0.9 1.7 0.00 0.01 0.01 62 1003.3
20260503012504 72 201 0.0 1.7 0.00 0.01 0.01 62 1003.3
20260503012004 72 220 0.0 1.7 0.00 0.01 0.01 62 1003.3
20260503011504 73 221 0.0 0.0 0.00 0.01 0.01 61 1003.3
20260503011004 73 221 0.0 0.9 0.00 0.01 0.01 61 1003.3
20260503010004 73 285 0.0 1.7 0.00 0.01 0.01 61 1003.3
20260503005004 73 285 0.0 1.7 0.00 0.01 0.01 61 1003.3
20260503004505 73 293 0.0 1.7 0.00 0.01 0.01 60 1003.3
20260503004004 73 259 0.9 2.6 0.00 0.01 0.01 60 1003.3
20260503003504 73 294 0.0 1.7 0.00 0.01 0.01 61 1003.4
20260503002504 73 279 0.9 4.3 0.00 0.01 0.01 61 1003.4
20260503000002 73 285 0.9 4.3 0.00 0.01 0.01 62 1003.4
20260502235502 73 294 0.9 5.2 0.00 0.01 0.01 61 1003.4
20260502235003 73 297 2.6 2.6 0.00 0.01 0.01 61 1003.5
20260502234503 72 295 0.9 4.3 0.00 0.01 0.01 62 1003.5
20260502234002 72 285 0.0 1.7 0.00 0.01 0.01 62 1003.6
20260502233503 72 291 0.0 5.2 0.00 0.01 0.01 61 1003.6
20260502233003 72 308 0.9 4.3 0.00 0.01 0.01 61 1003.7
20260502232503 72 281 1.7 2.6 0.00 0.01 0.01 62 1003.8
20260502232002 71 302 0.9 5.2 0.00 0.01 0.01 62 1003.8
20260502231502 71 214 0.9 2.6 0.00 0.01 0.01 63 1003.8
20260502231003 71 236 0.0 1.7 0.00 0.01 0.01 63 1003.9
20260502230003 71 308 0.9 2.6 0.00 0.01 0.01 62 1004.1
20260502225503 71 275 0.9 1.7 0.00 0.01 0.01 61 1004.2
20260502225003 70 276 1.7 2.6 0.00 0.01 0.01 63 1004.3
20260502224503 70 264 0.9 2.6 0.00 0.01 0.01 63 1004.4
20260502224003 70 228 0.9 1.7 0.00 0.01 0.01 63 1004.5
20260502223503 70 207 0.0 1.7 0.00 0.01 0.01 62 1004.5
20260502223003 70 237 0.9 2.6 0.00 0.01 0.01 63 1004.6
20260502222004 70 284 0.9 4.3 0.00 0.01 0.01 64 1004.8
20260502221503 69 297 0.9 2.6 0.00 0.01 0.01 65 1004.9
20260502220003 69 289 0.0 0.0 0.00 0.01 0.01 67 1005.2
20260502215503 68 289 0.0 1.7 0.00 0.01 0.01 65 1005.2
20260502214503 68 304 0.0 2.6 0.00 0.01 0.01 65 1005.3
20260502214003 68 310 0.9 2.6 0.00 0.01 0.01 64 1005.4
20260502213503 68 173 0.9 2.6 0.00 0.01 0.01 65 1005.5